Regional Weather Roundup
Issued by NWS

Home | Current Version | Previous Version | Graphics & Text | Print | Product List | Glossary On
Versions: 1 2 3 4 5 6 7 8 9 10 11 12 13 14 15 16 17 18 19 20 21 22 23 24 25 26 27 28 29 30 31 32 33 34 35 36 37 38 39 40 41 42 43 44 45 46 47 48 49 50
000
ASUS45 KCYS 061910
RWRWY

WYOMING REGIONAL WEATHER ROUNDUP
NATIONAL WEATHER SERVICE CHEYENNE WY
1200 PM MST FRI MAR 06 2015

NOTE:  "FAIR" INDICATES FEW OR NO CLOUDS BELOW 12,000 FEET
WITH NO SIGNIFICANT WEATHER AND/OR OBSTRUCTIONS TO VISIBILITY.

WYZ001-062000-
YELLOWSTONE NATIONAL PARK

CITY           SKY/WX    TMP DP  RH WIND       PRES   REMARKS
LK YELLOWSTONE   N/A     29  12  49 E3        30.39F
W YELLOWSTONE  NOT AVBL

$$
WYZ002>013-054>058-071-098>099-062000-
NORTHERN WYOMING

CITY           SKY/WX    TMP DP  RH WIND       PRES   REMARKS
JACKSON        NOT AVBL
CODY           FAIR      52  16  24 W18G28    30.22S
GREYBULL       FAIR      44  17  33 SE7       30.25F
WORLAND        FAIR      45  19  35 S6        30.25F
SHERIDAN       FAIR      50  24  36 NW12      30.18F
BUFFALO        FAIR      49  15  25 VRB3      30.20F
GILLETTE       FAIR      49  19  30 NW21G29   30.19R
HULETT         FAIR      46  19  34 W13G18    30.16F
NEWCASTLE      FAIR      50  14  23 NW23G29   30.19F

$$
WYZ014>020-022>026-101>103-062000-
CENTRAL WYOMING

CITY           SKY/WX    TMP DP  RH WIND       PRES   REMARKS
BIG PINEY      FAIR      44  11  26 N20       30.37F
PINEDALE       FAIR      34  18  51 W22G28    30.36F WCI  22
DUBOIS         FAIR      39  16  38 NW18G26   30.30F WCI  30
LANDER         FAIR      39  20  46 E3        30.27R
RIVERTON       FAIR      34  19  54 CALM      30.28S
CASPER         FAIR      36  22  56 SW21G29   30.27S WCI  25
DOUGLAS        FAIR      40  24  53 NW12      30.25S WCI  33

$$
WYZ021-027>030-104>119-062000-
SOUTHERN WYOMING

CITY           SKY/WX    TMP DP  RH WIND       PRES   REMARKS
EVANSTON       FAIR      40  17  39 SW12      30.43F WCI  33
KEMMERER       FAIR      37  18  44 W18G24    30.40F WCI  27
FORT BRIDGER   FAIR      43  16  34 W14       30.45S
ROCK SPRINGS   FAIR      37  19  48 W22       30.37F WCI  26
DIXON          FAIR      40  19  42 SW10G18   30.43F WCI  34
RAWLINS        FAIR      35  18  49 SW18G25   30.35R WCI  24
SARATOGA       FAIR      36  21  55 S3        30.36S
LARAMIE        FAIR      39  15  37 SW8       30.27F WCI  33
CHEYENNE       FAIR      46  16  30 W15G25    30.27S
TORRINGTON     FAIR      53  17  24 W17       30.23F
PINE BLUFFS    FAIR      50  12  22 NW18G26   30.27S

$$


USA.gov is the U.S. government's official web portal to all federal, state and local government web resources and services.